Location: Byszew
(52.1813°N, 19.2693°E)
Time: 20:39:52
(UTC+00:00)

Cosmos 1943 Rocket - Pass Details

Date: 03 March 2021
Orbit: 811 x 844 km, 71.0° (Epoch: 15 April)

Event Time Altitude Azimuth Distance (km) Brightness Sun altitude
Rises 18:59:16 0° 329° (NNW) 3,416 6.2 -23.9°
Reaches altitude 10° 19:02:11 10° 342° (NNW) 2,478 5.1 -24.3°
Maximum altitude 19:06:50 25° 37° (NE) 1,646 3.5 -24.9°
Enters shadow 19:06:59 25° 40° (NE) 1,647 3.5 -25.0°
